Flag for Canada

Past Weather in 73°03'08.8"N, 89°18'42.7"W, Canada — Yesterday and Last 2 Weeks

Currently: 46 °F. Overcast. (Weather station: Pond Inlet, Canada). See more current weather

Past Weather in 73°03'08.8"N, 89°18'42.7"W — Graph

°F

73°03'08.8"N, 89°18'42.7"W Temperature Yesterday

Maximum temperature yesterday: 46 °F (at 12:00 pm)
Minimum temperature yesterday: 32 °F (at 5:00 am)
Average temperature yesterday: 40 °F

High & Low Weather Summary for the Past Weeks

 TemperatureHumidityPressure
High54 °F (Jul 9, 5:00 pm)100% (Jun 30, 12:00 am)29.69 "Hg (Jun 30, 12:00 am)
Low32 °F (Jun 30, 3:00 am)51% (Jul 9, 5:00 pm)29.35 "Hg (Jul 3, 4:21 pm)
Average42 °F83%29.56 "Hg
* Reported Jun 29 7:00 am — Jul 14 7:00 am, 73°03'08.8"N, 89°18'42.7"W. Weather by CustomWeather, © 2024

Note: Actual official high and low records may vary slightly from our data, if they occured in-between our weather recording intervals... More about our weather records

73°03'08.8"N, 89°18'42.7"W Weather History for the Previous 24 Hours

Scroll right to see more
 ConditionsComfort  
Time TempWeatherWind HumidityBarometerVisibility
7:00 am
Sun, Jul 14
46 °FOvercast.13 mph66%29.69 "Hg9 mi
6:00 am46 °FScattered clouds.13 mph66%29.69 "Hg9 mi
5:00 am46 °FPartly sunny.10 mph66%29.68 "Hg9 mi
4:00 am46 °FOvercast.15 mph66%29.68 "Hg9 mi
3:00 am46 °FOvercast.15 mph66%29.67 "Hg9 mi
2:00 am46 °FOvercast.14 mph66%29.68 "Hg9 mi
1:00 am46 °FOvercast.12 mph71%29.67 "Hg9 mi
12:00 am46 °FOvercast.15 mph66%29.66 "Hg9 mi
11:00 pm
Sat, Jul 13
46 °FMostly cloudy.16 mph71%29.66 "Hg9 mi
10:00 pm46 °FOvercast.14 mph71%29.66 "Hg9 mi
9:00 pm46 °FPartly sunny.13 mph76%29.67 "Hg9 mi
8:00 pm46 °FMostly cloudy.15 mph76%29.65 "Hg9 mi
7:00 pm46 °FMostly cloudy.14 mph76%29.65 "Hg9 mi
6:00 pm46 °FPartly sunny.14 mph76%29.64 "Hg9 mi
5:38 pm46 °FMostly cloudy.13 mph76%29.64 "Hg9 mi
5:17 pm46 °FLight rain. Overcast.14 mph76%29.63 "Hg9 mi
5:00 pm46 °FOvercast.15 mph76%29.63 "Hg9 mi
4:00 pm46 °FMostly cloudy.15 mph76%29.62 "Hg40 mi
3:00 pm46 °FMostly cloudy.13 mph76%29.61 "Hg20 mi
2:00 pm45 °FPartly sunny.12 mph81%29.61 "Hg40 mi
1:00 pm45 °FMostly cloudy.14 mph81%29.60 "Hg40 mi
12:00 pm46 °FOvercast.16 mph76%29.59 "Hg9 mi
11:00 am43 °FMostly cloudy.10 mph81%29.60 "Hg9 mi
10:00 am39 °FOvercast.6 mph93%29.60 "Hg9 mi
Weather by CustomWeather, © 2024

See weather overview